FW9423 Weather Reports


Display with metric or nautical units.
time (UTC)temp
F
wind
direction
speed
MPH
gust
MPH
rain 1hr
in
rain 24hr
in
rain mn
in
humidity
%
barometer
mb
20260510031554 67 360 4.0 12.0 0.00 0.00 0.00 59 1028.7
20260510031041 66 360 6.0 12.0 0.00 0.00 0.00 59 1028.8
20260510030543 66 360 5.0 12.0 0.00 0.00 0.00 60 1028.8
20260510030050 66 360 5.0 11.0 0.00 0.00 0.00 60 1028.9
20260510025543 65 360 7.0 11.0 0.00 0.00 0.00 60 1029.1
20260510025044 66 360 5.0 10.0 0.00 0.00 0.00 60 1029.2
20260510024556 65 360 5.0 10.0 0.00 0.00 0.00 61 1029.2
20260510024044 65 360 5.0 12.0 0.00 0.00 0.00 61 1029.3
20260510023543 65 360 6.0 12.0 0.00 0.00 0.00 61 1029.5
20260510023052 65 360 6.0 13.0 0.00 0.00 0.00 61 1029.5
20260510022543 65 360 5.0 13.0 0.00 0.00 0.00 61 1029.6
20260510022043 65 360 5.0 13.0 0.00 0.00 0.00 62 1029.6
20260510021551 64 360 5.0 10.0 0.00 0.00 0.00 63 1029.6
20260510021043 64 360 4.0 10.0 0.00 0.00 0.00 64 1029.8
20260510020543 64 360 5.0 10.0 0.00 0.00 0.00 64 1029.8
20260510020050 63 360 5.0 13.0 0.00 0.00 0.00 65 1029.8
20260510015541 63 360 5.0 13.0 0.00 0.00 0.00 65 1029.9
20260510015041 63 360 5.0 13.0 0.00 0.00 0.00 66 1029.9
20260510014552 63 360 5.0 10.0 0.00 0.00 0.00 67 1029.9
20260510014041 62 360 5.0 10.0 0.00 0.00 0.00 68 1030.0
20260510013541 62 360 4.0 10.0 0.00 0.00 0.00 67 1030.0
20260510013053 62 360 5.0 10.0 0.00 0.00 0.00 68 1030.2
20260510012548 62 360 5.0 12.0 0.00 0.00 0.00 68 1030.2
20260510012042 62 360 5.0 12.0 0.00 0.00 0.00 69 1030.2
20260510011555 62 360 7.0 12.0 0.00 0.00 0.00 69 1030.2
20260510011042 61 360 5.0 12.0 0.00 0.00 0.00 70 1030.3
20260510010543 61 360 7.0 12.0 0.00 0.00 0.00 70 1030.3
20260510010050 61 360 6.0 12.0 0.00 0.00 0.00 71 1030.3
20260510005544 61 360 5.0 11.0 0.00 0.00 0.00 71 1030.2
20260510005043 60 360 6.0 11.0 0.00 0.00 0.00 72 1030.2
20260510004558 60 360 6.0 10.0 0.00 0.00 0.00 73 1030.3
20260510004043 60 360 5.0 10.0 0.00 0.00 0.00 74 1030.2
20260510003543 59 360 6.0 11.0 0.00 0.00 0.00 75 1030.2
20260510003109 59 360 6.0 11.0 0.00 0.00 0.00 76 1030.3
20260510002542 59 360 5.0 12.0 0.00 0.00 0.00 77 1030.2
20260510002040 58 360 7.0 12.0 0.00 0.00 0.00 77 1030.1
20260510001546 58 360 5.0 12.0 0.00 0.00 0.00 78 1030.2
20260510001043 57 360 6.0 12.0 0.00 0.00 0.00 78 1030.2
20260510000542 57 360 6.0 12.0 0.00 0.00 0.00 79 1030.3
20260510000100 57 360 6.0 12.0 0.00 0.00 0.00 79 1030.2
20260509235542 57 360 6.0 13.0 0.00 0.00 0.00 80 1030.2
20260509235043 56 360 5.0 13.0 0.00 0.00 0.00 81 1030.2
20260509234601 56 360 8.0 12.0 0.00 0.00 0.00 81 1030.2
20260509234043 56 360 6.0 12.0 0.00 0.00 0.00 82 1030.1
20260509233544 55 360 5.0 11.0 0.00 0.00 0.00 83 1030.1
20260509233101 55 360 5.0 10.0 0.00 0.00 0.00 84 1030.0
20260509232543 54 360 4.0 9.0 0.00 0.00 0.00 85 1030.0
20260509232043 54 360 5.0 9.0 0.00 0.00 0.00 85 1030.0
20260509231557 53 360 4.0 9.0 0.00 0.00 0.00 86 1030.0
20260509231043 53 360 5.0 9.0 0.00 0.00 0.00 86 1029.9
20260509230542 52 360 4.0 9.0 0.00 0.00 0.00 87 1029.9
20260509230059 52 360 4.0 9.0 0.00 0.00 0.00 87 1029.9
20260509225542 52 360 4.0 9.0 0.00 0.00 0.00 87 1029.9
20260509225040 51 360 4.0 8.0 0.00 0.00 0.00 87 1029.9
20260509224546 51 360 4.0 8.0 0.00 0.00 0.00 87 1029.8
20260509224039 51 360 4.0 8.0 0.00 0.00 0.00 87 1029.7
20260509223540 51 360 3.0 6.0 0.00 0.00 0.00 87 1029.6
20260509223049 50 360 3.0 5.0 0.00 0.00 0.00 87 1029.6
20260509222539 50 360 3.0 6.0 0.00 0.00 0.00 87 1029.5
20260509222043 50 360 3.0 6.0 0.00 0.00 0.00 87 1029.4
20260509221555 50 360 3.0 5.0 0.00 0.00 0.00 87 1029.3
20260509221043 50 360 3.0 6.0 0.00 0.00 0.00 87 1029.4
20260509220542 50 360 3.0 6.0 0.00 0.00 0.00 87 1029.3
20260509220051 50 360 3.0 6.0 0.00 0.00 0.00 86 1029.3
20260509215546 50 360 3.0 5.0 0.00 0.00 0.00 86 1029.2
20260509215043 50 360 3.0 6.0 0.00 0.00 0.00 86 1029.2
20260509214556 50 360 2.0 6.0 0.00 0.00 0.00 86 1029.2
20260509214042 50 360 3.0 6.0 0.00 0.00 0.00 86 1029.2
20260509213541 50 360 3.0 6.0 0.00 0.00 0.00 86 1029.1
20260509213058 50 360 3.0 6.0 0.00 0.00 0.00 86 1029.1
20260509212543 50 360 3.0 6.0 0.00 0.00 0.00 85 1029.0
20260509212040 50 360 3.0 6.0 0.00 0.00 0.00 86 1029.0
20260509211547 50 360 3.0 6.0 0.00 0.00 0.00 85 1028.9
20260509211043 50 360 3.0 8.0 0.00 0.00 0.00 85 1028.9
20260509210544 51 360 3.0 8.0 0.00 0.00 0.00 85 1028.8
20260509210101 51 360 4.0 8.0 0.00 0.00 0.00 85 1028.8
20260509205545 51 360 3.0 6.0 0.00 0.00 0.00 85 1028.7
20260509205043 51 360 4.0 8.0 0.00 0.00 0.00 85 1028.6
20260509204552 51 360 4.0 8.0 0.00 0.00 0.00 84 1028.6
20260509204040 51 360 3.0 8.0 0.00 0.00 0.00 84 1028.5
20260509203542 51 360 4.0 6.0 0.00 0.00 0.00 84 1028.6
20260509203049 51 360 3.0 5.0 0.00 0.00 0.00 84 1028.6
20260509202543 51 360 3.0 6.0 0.00 0.00 0.00 84 1028.5
20260509202043 51 360 3.0 6.0 0.00 0.00 0.00 84 1028.6
20260509201558 51 360 3.0 6.0 0.00 0.00 0.00 84 1028.5
20260509201046 51 360 3.0 6.0 0.00 0.00 0.00 83 1028.5
20260509200544 51 360 3.0 5.0 0.00 0.00 0.00 83 1028.4
20260509200055 51 360 3.0 6.0 0.00 0.00 0.00 83 1028.4
20260509195543 51 360 3.0 6.0 0.00 0.00 0.00 83 1028.4
20260509195040 51 360 3.0 5.0 0.00 0.00 0.00 83 1028.4
20260509194546 51 360 3.0 5.0 0.00 0.00 0.00 83 1028.4
20260509194039 51 360 3.0 5.0 0.00 0.00 0.00 83 1028.3
20260509193539 51 360 3.0 6.0 0.00 0.00 0.00 82 1028.3
20260509193053 52 360 2.0 6.0 0.00 0.00 0.00 82 1028.2
20260509192543 52 360 3.0 6.0 0.00 0.00 0.00 82 1028.1
20260509192043 52 360 3.0 6.0 0.00 0.00 0.00 82 1028.0
20260509191550 52 360 3.0 6.0 0.00 0.00 0.00 82 1028.1
20260509191042 52 360 3.0 6.0 0.00 0.00 0.00 82 1028.0
20260509190543 52 360 3.0 6.0 0.00 0.00 0.00 81 1028.0
20260509190048 52 360 3.0 6.0 0.00 0.00 0.00 81 1027.9
20260509185543 52 360 3.0 6.0 0.00 0.00 0.00 81 1027.9
20260509185043 53 360 3.0 8.0 0.00 0.00 0.00 81 1027.9
20260509184552 53 360 3.0 8.0 0.00 0.00 0.00 80 1028.0
20260509184039 53 360 3.0 6.0 0.00 0.00 0.00 80 1028.0
20260509183547 53 360 2.0 6.0 0.00 0.00 0.00 80 1028.0
20260509183134 53 360 3.0 6.0 0.00 0.00 0.00 80 1028.0
20260509182540 53 360 3.0 6.0 0.00 0.00 0.00 80 1027.9
20260509182043 53 360 3.0 6.0 0.00 0.00 0.00 80 1028.0
20260509181606 53 360 3.0 6.0 0.00 0.00 0.00 80 1027.9
20260509181041 53 360 3.0 6.0 0.00 0.00 0.00 80 1028.0
20260509180541 53 360 2.0 6.0 0.00 0.00 0.00 80 1028.0
20260509180051 53 360 3.0 5.0 0.00 0.00 0.00 80 1027.9
20260509175544 53 360 2.0 5.0 0.00 0.00 0.00 79 1028.0
20260509175043 53 360 2.0 5.0 0.00 0.00 0.00 79 1028.1
20260509174549 53 360 2.0 5.0 0.00 0.00 0.00 79 1028.1
20260509174042 54 360 2.0 5.0 0.00 0.00 0.00 79 1028.1
20260509173541 54 360 2.0 5.0 0.00 0.00 0.00 78 1028.1
20260509173051 54 360 2.0 5.0 0.00 0.00 0.00 78 1028.2
20260509172542 54 360 3.0 5.0 0.00 0.00 0.00 77 1028.2
20260509172042 54 360 3.0 6.0 0.00 0.00 0.00 77 1028.1
20260509171546 54 360 3.0 6.0 0.00 0.00 0.00 77 1028.1
20260509171043 55 360 2.0 6.0 0.00 0.00 0.00 76 1028.2
20260509170545 55 360 2.0 8.0 0.00 0.00 0.00 76 1028.2
20260509170056 55 360 3.0 8.0 0.00 0.00 0.00 76 1028.2
20260509165541 55 360 3.0 8.0 0.00 0.00 0.00 76 1028.3
20260509165042 55 360 3.0 8.0 0.00 0.00 0.00 75 1028.3
20260509164600 55 360 3.0 8.0 0.00 0.00 0.00 75 1028.4
20260509164042 55 360 3.0 8.0 0.00 0.00 0.00 75 1028.4
20260509163542 55 360 3.0 8.0 0.00 0.00 0.00 75 1028.4
20260509163053 55 360 2.0 6.0 0.00 0.00 0.00 74 1028.4
20260509162543 55 360 3.0 6.0 0.00 0.00 0.00 74 1028.4
20260509162042 55 360 3.0 6.0 0.00 0.00 0.00 74 1028.3
20260509161546 55 360 3.0 6.0 0.00 0.00 0.00 73 1028.3
20260509161045 55 360 4.0 8.0 0.00 0.00 0.00 73 1028.2
20260509160542 55 360 3.0 8.0 0.00 0.00 0.00 72 1028.3
20260509160057 55 360 3.0 8.0 0.00 0.00 0.00 72 1028.3
20260509155543 55 360 3.0 6.0 0.00 0.00 0.00 71 1028.3
20260509155040 56 360 3.0 6.0 0.00 0.00 0.00 71 1028.3
20260509154556 56 360 3.0 9.0 0.00 0.00 0.00 70 1028.3
20260509154044 56 360 4.0 9.0 0.00 0.00 0.00 70 1028.3
20260509153543 56 360 3.0 10.0 0.00 0.00 0.00 69 1028.3
20260509153058 56 360 5.0 10.0 0.00 0.00 0.00 69 1028.3
20260509152540 56 360 4.0 10.0 0.00 0.00 0.00 69 1028.3
20260509152041 56 360 4.0 9.0 0.00 0.00 0.00 68 1028.2
20260509151553 56 360 3.0 9.0 0.00 0.00 0.00 68 1028.3
20260509151041 56 360 4.0 9.0 0.00 0.00 0.00 67 1028.4
20260509150542 57 360 4.0 9.0 0.00 0.00 0.00 67 1028.2
20260509150049 57 360 4.0 8.0 0.00 0.00 0.00 67 1028.3
20260509145542 57 360 4.0 8.0 0.00 0.00 0.00 66 1028.4
20260509145041 57 360 4.0 8.0 0.00 0.00 0.00 66 1028.4
20260509144549 57 360 3.0 8.0 0.00 0.00 0.00 66 1028.4
20260509144039 57 360 4.0 8.0 0.00 0.00 0.00 65 1028.3
20260509143544 57 360 3.0 8.0 0.00 0.00 0.00 65 1028.4
20260509143051 57 360 3.0 9.0 0.00 0.00 0.00 65 1028.5
20260509142540 57 360 3.0 9.0 0.00 0.00 0.00 65 1028.4
20260509142046 57 360 4.0 9.0 0.00 0.00 0.00 65 1028.5
20260509141556 57 360 3.0 8.0 0.00 0.00 0.00 64 1028.5
20260509141042 57 360 4.0 8.0 0.00 0.00 0.00 64 1028.5
20260509140540 57 360 4.0 8.0 0.00 0.00 0.00 64 1028.6
20260509140056 57 360 4.0 8.0 0.00 0.00 0.00 64 1028.5
20260509135542 57 360 3.0 8.0 0.00 0.00 0.00 64 1028.5
20260509135042 57 360 3.0 6.0 0.00 0.00 0.00 64 1028.6
20260509134557 57 360 3.0 6.0 0.00 0.00 0.00 64 1028.6
20260509134040 57 360 3.0 6.0 0.00 0.00 0.00 64 1028.6
20260509133543 57 360 3.0 6.0 0.00 0.00 0.00 64 1028.5
20260509133049 57 360 2.0 5.0 0.00 0.00 0.00 63 1028.6
20260509132545 57 360 3.0 6.0 0.00 0.00 0.00 63 1028.6
20260509132043 57 360 2.0 6.0 0.00 0.00 0.00 62 1028.4
20260509131547 57 360 3.0 6.0 0.00 0.00 0.00 62 1028.5
20260509131042 57 360 3.0 5.0 0.00 0.00 0.00 62 1028.5
20260509130541 57 360 3.0 6.0 0.00 0.00 0.00 61 1028.5
20260509130053 57 360 3.0 6.0 0.00 0.00 0.00 61 1028.6
20260509125543 57 360 3.0 6.0 0.00 0.00 0.00 60 1028.6
20260509125042 57 360 3.0 5.0 0.00 0.00 0.00 60 1028.6
20260509124546 57 360 3.0 5.0 0.00 0.00 0.00 59 1028.7
20260509124043 57 360 3.0 6.0 0.00 0.00 0.00 59 1028.7
20260509123547 57 360 3.0 6.0 0.00 0.00 0.00 59 1028.6
20260509123052 57 360 2.0 5.0 0.00 0.00 0.00 58 1028.5
20260509122541 57 360 3.0 5.0 0.00 0.00 0.00 58 1028.5
20260509122042 57 360 2.0 5.0 0.00 0.00 0.00 58 1028.5
20260509121547 57 360 2.0 5.0 0.00 0.00 0.00 58 1028.6
20260509121042 57 360 2.0 4.0 0.00 0.00 0.00 58 1028.6
20260509120544 57 360 1.0 3.0 0.00 0.00 0.00 58 1028.6
20260509120055 57 360 1.0 3.0 0.00 0.00 0.00 58 1028.5
20260509115541 57 360 1.0 3.0 0.00 0.00 0.00 57 1028.5
20260509115044 57 360 1.0 3.0 0.00 0.00 0.00 57 1028.6
20260509114550 57 360 1.0 3.0 0.00 0.00 0.00 57 1028.6
20260509114043 58 360 1.0 3.0 0.00 0.00 0.00 57 1028.6
20260509113544 58 360 1.0 4.0 0.00 0.00 0.00 56 1028.7
20260509113052 58 360 1.0 4.0 0.00 0.00 0.00 56 1028.6
20260509112545 58 360 1.0 3.0 0.00 0.00 0.00 55 1028.5
20260509112040 58 360 1.0 3.0 0.00 0.00 0.00 55 1028.5
20260509111551 59 360 1.0 3.0 0.00 0.00 0.00 55 1028.5
20260509111041 59 360 1.0 3.0 0.00 0.00 0.00 54 1028.5
20260509110542 59 360 1.0 2.0 0.00 0.00 0.00 54 1028.5
20260509110052 60 360 1.0 3.0 0.00 0.00 0.00 53 1028.5
20260509105540 60 360 1.0 3.0 0.00 0.00 0.00 53 1028.5
20260509105043 60 360 1.0 3.0 0.00 0.00 0.00 53 1028.5
20260509104555 60 360 2.0 3.0 0.00 0.00 0.00 52 1028.5
20260509104040 61 360 2.0 3.0 0.00 0.00 0.00 52 1028.5
20260509103540 61 360 2.0 4.0 0.00 0.00 0.00 52 1028.5
20260509103054 61 360 2.0 4.0 0.00 0.00 0.00 51 1028.5
20260509102540 61 360 2.0 4.0 0.00 0.00 0.00 51 1028.4
20260509102044 62 360 2.0 4.0 0.00 0.00 0.00 50 1028.4
20260509101556 62 360 2.0 4.0 0.00 0.00 0.00 50 1028.5
20260509101040 62 360 2.0 5.0 0.00 0.00 0.00 50 1028.3
20260509100540 62 360 2.0 5.0 0.00 0.00 0.00 50 1028.3
20260509100058 62 360 2.0 4.0 0.00 0.00 0.00 49 1028.3
20260509095540 63 360 2.0 4.0 0.00 0.00 0.00 49 1028.3
20260509095041 63 360 2.0 5.0 0.00 0.00 0.00 48 1028.3
20260509094555 63 360 2.0 5.0 0.00 0.00 0.00 48 1028.3
20260509094042 64 360 2.0 5.0 0.00 0.00 0.00 47 1028.3
20260509093543 64 360 3.0 5.0 0.00 0.00 0.00 47 1028.2
20260509093101 64 360 2.0 8.0 0.00 0.00 0.00 47 1028.2
20260509092541 64 360 3.0 8.0 0.00 0.00 0.00 46 1028.0
20260509092043 64 360 4.0 8.0 0.00 0.00 0.00 46 1028.0
20260509091557 65 360 4.0 8.0 0.00 0.00 0.00 46 1027.9
20260509091043 65 360 5.0 9.0 0.00 0.00 0.00 46 1027.9
20260509090544 65 360 4.0 9.0 0.00 0.00 0.00 46 1027.8
20260509090051 65 360 4.0 9.0 0.00 0.00 0.00 45 1027.9
20260509085540 65 360 4.0 12.0 0.00 0.00 0.00 45 1027.9
20260509085041 66 360 5.0 12.0 0.00 0.00 0.00 45 1027.8
20260509084601 66 360 4.0 12.0 0.00 0.00 0.00 45 1027.7
20260509084047 66 360 5.0 12.0 0.00 0.00 0.00 45 1027.8
20260509083542 66 360 7.0 12.0 0.00 0.00 0.00 44 1027.6
20260509083102 66 360 5.0 12.0 0.00 0.00 0.00 43 1027.7
20260509082543 67 360 6.0 10.0 0.00 0.00 0.00 43 1027.7
20260509082043 67 360 4.0 10.0 0.00 0.00 0.00 43 1027.6
20260509081553 67 360 4.0 11.0 0.00 0.00 0.00 43 1027.6
20260509081043 67 360 5.0 11.0 0.00 0.00 0.00 43 1027.7
20260509080541 67 360 6.0 11.0 0.00 0.00 0.00 43 1027.6
20260509080057 67 360 6.0 11.0 0.00 0.00 0.00 42 1027.5
20260509075539 67 360 5.0 12.0 0.00 0.00 0.00 42 1027.6
20260509075041 68 360 6.0 12.0 0.00 0.00 0.00 42 1027.6
20260509074548 68 360 6.0 12.0 0.00 0.00 0.00 42 1027.5
20260509074044 68 360 5.0 12.0 0.00 0.00 0.00 41 1027.6
20260509073541 68 360 5.0 12.0 0.00 0.00 0.00 42 1027.5
20260509073048 68 360 6.0 11.0 0.00 0.00 0.00 41 1027.5
20260509072543 68 360 5.0 12.0 0.00 0.00 0.00 41 1027.6
20260509072041 68 360 6.0 12.0 0.00 0.00 0.00 42 1027.5
20260509071552 68 360 5.0 12.0 0.00 0.00 0.00 42 1027.5
20260509071043 69 360 5.0 12.0 0.00 0.00 0.00 42 1027.5
20260509070608 69 360 4.0 11.0 0.00 0.00 0.00 41 1027.4
20260509065541 68 360 5.0 11.0 0.00 0.00 0.00 42 1027.5
20260509065041 68 360 5.0 12.0 0.00 0.00 0.00 42 1027.4
20260509064546 68 360 5.0 12.0 0.00 0.00 0.00 43 1027.4
20260509064045 68 360 6.0 12.0 0.00 0.00 0.00 43 1027.4
20260509063540 68 360 6.0 12.0 0.00 0.00 0.00 43 1027.4
20260509063055 68 360 4.0 11.0 0.00 0.00 0.00 42 1027.4
20260509062541 68 360 6.0 12.0 0.00 0.00 0.00 43 1027.4
20260509062043 68 360 6.0 12.0 0.00 0.00 0.00 43 1027.5
20260509061552 68 360 6.0 12.0 0.00 0.00 0.00 43 1027.5
20260509061042 68 360 6.0 12.0 0.00 0.00 0.00 43 1027.4
20260509060543 68 360 5.0 12.0 0.00 0.00 0.00 43 1027.6
20260509060052 68 360 5.0 12.0 0.00 0.00 0.00 43 1027.6
20260509055543 68 360 5.0 12.0 0.00 0.00 0.00 42 1027.6
20260509055041 68 360 6.0 16.0 0.00 0.00 0.00 43 1027.6
20260509054600 68 360 7.0 16.0 0.00 0.00 0.00 42 1027.6
20260509054041 68 360 3.0 11.0 0.00 0.00 0.00 44 1027.7
20260509053542 68 360 3.0 13.0 0.00 0.00 0.00 44 1027.7
20260509053125 68 360 6.0 13.0 0.00 0.00 0.00 43 1027.8
20260509052542 68 360 7.0 12.0 0.00 0.00 0.00 43 1027.9
20260509052045 68 360 4.0 12.0 0.00 0.00 0.00 44 1027.8
20260509051607 68 360 4.0 12.0 0.00 0.00 0.00 44 1027.8
20260509051041 68 360 3.0 12.0 0.00 0.00 0.00 45 1027.8
20260509050541 67 360 5.0 12.0 0.00 0.00 0.00 45 1027.9
20260509050105 67 360 4.0 11.0 0.00 0.00 0.00 45 1027.9
20260509045541 67 360 6.0 11.0 0.00 0.00 0.00 45 1027.9
20260509045041 67 360 3.0 11.0 0.00 0.00 0.00 45 1028.0
20260509044550 67 360 5.0 11.0 0.00 0.00 0.00 45 1028.1
20260509044043 67 360 6.0 11.0 0.00 0.00 0.00 46 1028.2
20260509043540 66 360 5.0 11.0 0.00 0.00 0.00 47 1028.3
20260509043053 66 360 4.0 11.0 0.00 0.00 0.00 48 1028.4
20260509042541 66 360 4.0 11.0 0.00 0.00 0.00 48 1028.4
20260509042041 66 360 4.0 12.0 0.00 0.00 0.00 47 1028.4
20260509041555 66 360 6.0 12.0 0.00 0.00 0.00 48 1028.6
20260509041043 66 360 2.0 13.0 0.00 0.00 0.00 48 1028.7
20260509040541 66 360 4.0 13.0 0.00 0.00 0.00 48 1028.9
20260509040053 66 360 7.0 13.0 0.00 0.00 0.00 48 1028.9
20260509035544 66 360 5.0 12.0 0.00 0.00 0.00 49 1029.1
20260509035043 66 360 6.0 11.0 0.00 0.00 0.00 49 1029.2
20260509034550 66 360 5.0 11.0 0.00 0.00 0.00 50 1029.2
20260509034041 66 360 6.0 11.0 0.00 0.00 0.00 50 1029.5
20260509033542 65 360 6.0 11.0 0.00 0.00 0.00 50 1029.6
20260509033100 65 360 4.0 13.0 0.00 0.00 0.00 51 1029.6
20260509032543 65 360 5.0 13.0 0.00 0.00 0.00 51 1029.9
20260509032040 65 360 6.0 11.0 0.00 0.00 0.00 50 1030.0